AirNav   Everest Fuels
 
 966 users online  

0R7 The Red River Airport
Coushatta, Louisiana, USA

GOING TO COUSHATTA?


FAA INFORMATION EFFECTIVE 10 OCTOBER 2019

Location

FAA Identifier: 0R7
Lat/Long: 31-59-25.0000N 093-18-27.4000W
31-59.416667N 093-18.456667W
31.9902778,-93.3076111
(estimated)
Elevation: 177.2 ft. / 54.0 m (surveyed)
Variation: 01E (2020)
From city: 2 miles SE of COUSHATTA, LA
Time zone: UTC -5 (UTC -6 during Standard Time)
Zip code: 71019

Airport Operations

Airport use: Open to the public
Control tower: no
ARTCC: HOUSTON CENTER
FSS: DE RIDDER FLIGHT SERVICE STATION
NOTAMs facility: DRI (NOTAM-D service available)
Attendance: UNATNDD
Wind indicator: lighted
Segmented circle: no
Lights: MIRL RY 18/36, REIL RYS 18 & 36 PRESET LOW INTST DUSK-DAWN; TO INCR INTST ACTVT - CTAF.
Beacon: white-green (lighted land airport)
Operates sunset to sunrise.

Airport Communications

CTAF: 122.9
POLK APPROACH: 132.05
POLK DEPARTURE: 132.05
WX AWOS-3 at IER (19 nm SE): 119.025 (318-352-1575)

Nearby radio navigation aids

VOR radial/distance  VOR name  Freq  Var
EMGr142/28.6ELM GROVE VORTAC111.2007E
SWBr270/32.1SAWMILL VOR/DME113.7502E

 
NDB name  Hdg/Dist  Freq  Var  ID
NATCHITOCHES326/23.240704EOOC --- --- -.-.
MANSFIELD097/23.741404EMSD -- ... -..

Airport Services

Parking: tiedowns
Airframe service: NONE
Powerplant service: NONE
Bottled oxygen: NONE
Bulk oxygen: NONE

Runway Information

Runway 18/36

Dimensions: 5002 x 74 ft. / 1525 x 23 m
Surface: asphalt, in good condition
Weight bearing capacity: 
Single wheel: 44.0
Runway edge lights: medium intensity
RUNWAY 18  RUNWAY 36
Latitude: 31-59.828942N31-59.004012N
Longitude: 093-18.455817W093-18.457495W
Elevation: 177.0 ft.165.3 ft.
Traffic pattern: leftleft
Runway heading: 179 magnetic, 180 true359 magnetic, 000 true
Markings: nonprecision, in fair conditionnonprecision, in fair condition
Visual slope indicator: 2-light PAPI on left (3.00 degrees glide path)2-light PAPI on left (3.00 degrees glide path)
Runway end identifier lights: yes
RWY 18 REILS OUT OF SERVICE
yes
RWY 36 REILS OUT OF SERVICE
Touchdown point: yes, no lightsyes, no lights
Obstructions: 53 ft. trees, 1262 ft. from runway, 243 ft. left of centerline, 20:1 slope to clear85 ft. trees, 1695 ft. from runway, 192 ft. right of centerline, 17:1 slope to clear

Airport Ownership and Management from official FAA records

Ownership: Publicly-owned
Owner: RED RIVER PARISH POLICE JURY
PO DRAWER 709
COUSHATTA, LA 71019
Phone 318-932-5719
Manager: JESSIE DAVIS
PO DRAWER 709
COUSHATTA, LA 71019
Phone 318-932-5710

Airport Operational Statistics

Aircraft based on the field: 3
Single engine airplanes: 3
    
Aircraft operations: avg 105/week *
73% local general aviation
27% transient general aviation
* for 12-month period ending 16 April 2019

Additional Remarks

GCO AVBL ON FREQ 135.075 THRU FLT SVCS.
66 FT TREES 253 FT EAST OF RWY CNTRLN FULL LENGTH.
FOR CD CTC FORT WORTH ARTCC AT 817-858-7584.

Instrument Procedures

NOTE: All procedures below are presented as PDF files. If you need a reader for these files, you should download the free Adobe Reader.

NOT FOR NAVIGATION. Please procure official charts for flight.
FAA instrument procedures published for use from 10 October 2019 at 0901Z to 17 November 2019 at 0900Z.

 
IAPs - Instrument Approach Procedures
RNAV (GPS) RWY 18   download (184KB)
NOTE: Special Take-Off Minimums/Departure Procedures apply   download (216KB)

Other nearby airports with instrument procedures:

KIER - Natchitoches Regional Airport (19 nm SE)
3F3 - C E 'Rusty' Williams Airport (24 nm W)
3R4 - Hart Airport (28 nm S)
F88 - Jonesboro Airport (32 nm NE)
0R5 - David G Joyce Airport (33 nm E)
 
Loc | Ops | Rwys | IFR | FBO | Links
Com | Nav | Svcs | Stats | Notes
Area around 0R7 (The Red River Airport)
 
Road maps at: MapQuest Bing Google
 
Aerial photo
WARNING: Photo may not be current or correct
Aerial photo of 0R7 (The Red River Airport)
Photo by Carl Hennigan
Taken in May 2007

Do you have a better or more recent aerial photo of The Red River Airport that you would like to share? If so, please send us your photo.

 
Sectional chart

 
Airport distance calculator
Flying to The Red River Airport? Find the distance to fly.

From to 0R7

Sunrise and sunset
Times for 17-Oct-2019
 Local
(UTC-5)
 Zulu
(UTC)
Morning civil twilight06:5411:54
Sunrise07:1912:19
Sunset18:3823:38
Evening civil twilight19:0300:03

Current date and time
Zulu (UTC)  17-Oct-2019 23:27:55
Local (UTC-5)  17-Oct-2019 18:27:55
 
METAR
KIER 
19nm SE 
172315Z AUTO 00000KT 10SM CLR 17/11 A2999 RMK AO2 T01710111
KAQV 
21nm S 
172258Z AUTO 00000KT 10SM CLR 16/12 A2997 RMK AO2 SLP147 T01560117
K3F3 
24nm W 
172315Z AUTO 00000KT 10SM CLR 17/11 A3003 RMK AO2 T01690109
KBAD 
36nm NW 
172256Z AUTO 11003KT 10SM CLR 18/09 A2999 RMK AO2 SLP158 T01770093
TAF
KBAD 
36nm NW 
171801Z 1718/1824 12007KT 9999 BKN200 QNH2993INS WND 10002KT AFT 1801 BECMG 1812/1813 11008KT 9999 SCT250 QNH2988INS TX21/1722Z TN11/1812Z
KSHV 
38nm NW 
171740Z 1718/1818 12007KT P6SM SCT180 BKN280 FM180000 VRB03KT P6SM BKN250 FM181500 10005KT P6SM SKC
NOTAMs
Click for the latest NOTAMs
NOTAMs are issued by the DoD/FAA and will open in a separate window not controlled by AirNav.

 

 
 

Would you like to see your business listed on this page?

 If your business provides an interesting product or service to pilots, flight crews, aircraft, or users of the The Red River Airport, you should consider listing it here.  To start the listing process, click on the button below
 
Add a business
 

Other Pages about The Red River Airport

Update a link
 
Copyright © AirNav, LLC. All rights reserved. Privacy Policy  Contact